| time (UTC) | temp C | wind direction | speed KPH | gust KPH | rain 1hr cm | rain 24hr cm | rain mn cm | humidity % | barometer mb |
| 20260906010034 | 14 | 223 | 0.0 | 1.6 | 0.00 | 0.00 | 0.00 | 97 | |
| 20260906005003 | 14 | 69 | 0.0 | 1.6 | 0.00 | 0.00 | 0.00 | 97 | |
| 20260906004003 | 14 | 0 | 0.0 | 0.0 | 0.00 | 0.00 | 0.00 | 96 | |
| 20260906003003 | 14 | 233 | 0.0 | 3.2 | 0.00 | 0.00 | 0.00 | 96 | |
| 20260906002003 | 15 | 232 | 1.6 | 3.2 | 0.00 | 0.00 | 0.00 | 97 | |
| 20260906001003 | 15 | 223 | 0.0 | 3.2 | 0.00 | 0.00 | 0.00 | 96 | |
| 20260906000003 | 15 | 244 | 0.0 | 3.2 | 0.00 | 0.00 | 0.00 | 96 | |
| 20260905234003 | 15 | 228 | 1.6 | 3.2 | 0.00 | 0.00 | 0.00 | 96 | |
| 20260905233003 | 15 | 233 | 1.6 | 3.2 | 0.00 | 0.00 | 0.00 | 96 | |
| 20260905232217 | 15 | 236 | 1.6 | 3.2 | 0.00 | 0.00 | 0.00 | 96 | |
| 20260905231003 | 15 | 231 | 1.6 | 3.2 | 0.00 | 0.00 | 0.00 | 96 | |
| 20260905230432 | 15 | 236 | 1.6 | 3.2 | 0.00 | 0.00 | 0.00 | 96 | |
| 20260905225003 | 14 | 221 | 0.0 | 3.2 | 0.00 | 0.00 | 0.00 | 96 | |
| 20260905224432 | 14 | 252 | 0.0 | 1.6 | 0.00 | 0.00 | 0.00 | 96 | |
| 20260905223003 | 14 | 230 | 1.6 | 3.2 | 0.00 | 0.00 | 0.00 | 96 | |
| 20260905222034 | 14 | 340 | 0.0 | 3.2 | 0.00 | 0.00 | 0.00 | 96 | |
| 20260905221217 | 14 | 227 | 0.0 | 3.2 | 0.00 | 0.00 | 0.00 | 96 | |
| 20260905220217 | 15 | 232 | 1.6 | 3.2 | 0.00 | 0.00 | 0.00 | 96 | |
| 20260905215003 | 15 | 0 | 0.0 | 0.0 | 0.00 | 0.00 | 0.00 | 96 | |
| 20260905214003 | 15 | 133 | 0.0 | 3.2 | 0.00 | 0.00 | 0.00 | 95 | |
| 20260905213003 | 15 | 16 | 0.0 | 1.6 | 0.00 | 0.00 | 0.00 | 95 | |
| 20260905212216 | 15 | 72 | 0.0 | 1.6 | 0.00 | 0.00 | 0.00 | 95 | |
| 20260905211003 | 15 | 232 | 0.0 | 1.6 | 0.00 | 0.00 | 0.00 | 95 | |
| 20260905210003 | 15 | 223 | 0.0 | 3.2 | 0.00 | 0.00 | 0.00 | 95 | |
| 20260905204003 | 15 | 0 | 0.0 | 0.0 | 0.00 | 0.00 | 0.00 | 95 | |
| 20260905203003 | 15 | 0 | 0.0 | 0.0 | 0.00 | 0.00 | 0.00 | 94 | |
| 20260905201003 | 15 | 0 | 0.0 | 0.0 | 0.00 | 0.00 | 0.00 | 93 | |
| 20260905200004 | 16 | 224 | 0.0 | 3.2 | 0.00 | 0.00 | 0.00 | 93 | |
| 20260905195218 | 16 | 209 | 0.0 | 3.2 | 0.00 | 0.00 | 0.00 | 93 | |
| 20260905194003 | 16 | 137 | 0.0 | 1.6 | 0.00 | 0.00 | 0.00 | 93 | |
| 20260905193003 | 16 | 212 | 0.0 | 3.2 | 0.00 | 0.00 | 0.00 | 92 | |
| 20260905192433 | 16 | 212 | 0.0 | 3.2 | 0.00 | 0.00 | 0.00 | 91 | |
| 20260905191003 | 16 | 265 | 0.0 | 1.6 | 0.00 | 0.00 | 0.00 | 91 | |
| 20260905185003 | 17 | 237 | 0.0 | 3.2 | 0.00 | 0.00 | 0.00 | 90 | |
| 20260905184218 | 17 | 0 | 0.0 | 0.0 | 0.00 | 0.00 | 0.00 | 90 | |
| 20260905182003 | 17 | 219 | 0.0 | 1.6 | 0.00 | 0.00 | 0.00 | 89 | |
| 20260905181003 | 17 | 174 | 0.0 | 3.2 | 0.00 | 0.00 | 0.00 | 89 | |
| 20260905180003 | 17 | 177 | 0.0 | 3.2 | 0.00 | 0.00 | 0.00 | 88 | |
| 20260905175432 | 17 | 0 | 0.0 | 0.0 | 0.00 | 0.00 | 0.00 | 87 | |
| 20260905173003 | 18 | 216 | 1.6 | 3.2 | 0.00 | 0.00 | 0.00 | 82 | |
| 20260905172003 | 19 | 251 | 1.6 | 3.2 | 0.00 | 0.00 | 0.00 | 82 | |
| 20260905171003 | 19 | 200 | 0.0 | 3.2 | 0.00 | 0.00 | 0.00 | 81 | |
| 20260905164003 | 20 | 226 | 3.2 | 4.8 | 0.00 | 0.00 | 0.00 | 79 | |
| 20260905163003 | 20 | 227 | 3.2 | 6.4 | 0.00 | 0.00 | 0.00 | 77 | |
| 20260905162003 | 20 | 242 | 3.2 | 6.4 | 0.00 | 0.00 | 0.00 | 76 | |
| 20260905161003 | 21 | 232 | 3.2 | 6.4 | 0.00 | 0.00 | 0.00 | 74 | |
| 20260905160003 | 21 | 233 | 3.2 | 9.7 | 0.00 | 0.00 | 0.00 | 73 | |
| 20260905155432 | 21 | 236 | 1.6 | 9.7 | 0.00 | 0.00 | 0.00 | 72 | |
| 20260905154003 | 21 | 245 | 4.8 | 9.7 | 0.00 | 0.00 | 0.00 | 72 | |
| 20260905152003 | 21 | 206 | 4.8 | 12.9 | 0.00 | 0.00 | 0.00 | 71 | |
| 20260905151034 | 22 | 234 | 4.8 | 11.3 | 0.00 | 0.00 | 0.00 | 70 | |
| 20260905150034 | 22 | 231 | 4.8 | 11.3 | 0.00 | 0.00 | 0.00 | 69 | |
| 20260905145218 | 21 | 233 | 4.8 | 12.9 | 0.00 | 0.00 | 0.00 | 71 | |
| 20260905144034 | 21 | 225 | 4.8 | 11.3 | 0.00 | 0.00 | 0.00 | 74 | |
| 20260905143218 | 22 | 234 | 3.2 | 9.7 | 0.00 | 0.00 | 0.00 | 68 | |
| 20260905142003 | 22 | 198 | 4.8 | 12.9 | 0.00 | 0.00 | 0.00 | 68 | |
| 20260905141218 | 22 | 192 | 4.8 | 11.3 | 0.00 | 0.00 | 0.00 | 67 | |
| 20260905135003 | 20 | 230 | 6.4 | 12.9 | 0.00 | 0.00 | 0.00 | 77 | |
| 20260905134003 | 20 | 230 | 4.8 | 11.3 | 0.00 | 0.00 | 0.00 | 76 | |
| 20260905133218 | 20 | 239 | 6.4 | 12.9 | 0.00 | 0.00 | 0.00 | 76 | |
| 20260905132217 | 20 | 248 | 4.8 | 14.5 | 0.00 | 0.00 | 0.00 | 74 | |
| 20260905131003 | 21 | 233 | 6.4 | 12.9 | 0.00 | 0.00 | 0.00 | 72 | |
| 20260905130003 | 20 | 225 | 4.8 | 11.3 | 0.00 | 0.00 | 0.00 | 76 | |
| 20260905124217 | 18 | 235 | 6.4 | 11.3 | 0.00 | 0.00 | 0.00 | 80 | |
| 20260905123003 | 18 | 234 | 6.4 | 12.9 | 0.00 | 0.00 | 0.00 | 80 | |
| 20260905122432 | 18 | 233 | 4.8 | 11.3 | 0.00 | 0.00 | 0.00 | 79 | |
| 20260905121217 | 18 | 240 | 3.2 | 8.0 | 0.00 | 0.00 | 0.00 | 77 | |
| 20260905120003 | 19 | 233 | 3.2 | 6.4 | 0.00 | 0.00 | 0.00 | 76 | |
| 20260905115003 | 20 | 226 | 3.2 | 6.4 | 0.00 | 0.00 | 0.00 | 75 | |
| 20260905114432 | 20 | 229 | 3.2 | 8.0 | 0.00 | 0.00 | 0.00 | 71 | |
| 20260905113003 | 21 | 232 | 3.2 | 9.7 | 0.00 | 0.00 | 0.00 | 62 | |
| 20260905112003 | 22 | 240 | 3.2 | 8.0 | 0.00 | 0.00 | 0.00 | 60 | |
| 20260905110003 | 23 | 244 | 1.6 | 3.2 | 0.00 | 0.00 | 0.00 | 58 | |
| 20260905105432 | 22 | 226 | 1.6 | 4.8 | 0.00 | 0.00 | 0.00 | 60 | |
| 20260905104216 | 21 | 227 | 3.2 | 6.4 | 0.00 | 0.00 | 0.00 | 60 | |
| 20260905103003 | 21 | 242 | 1.6 | 4.8 | 0.00 | 0.00 | 0.00 | 59 | |
| 20260905102432 | 21 | 240 | 1.6 | 4.8 | 0.00 | 0.00 | 0.00 | 60 | |
| 20260905100003 | 22 | 317 | 0.0 | 1.6 | 0.00 | 0.00 | 0.00 | 58 | |
| 20260905094003 | 22 | 290 | 1.6 | 3.2 | 0.00 | 0.00 | 0.00 | 61 | |
| 20260905092003 | 20 | 205 | 1.6 | 4.8 | 0.00 | 0.00 | 0.00 | 69 | |
| 20260905091034 | 20 | 344 | 1.6 | 4.8 | 0.00 | 0.00 | 0.00 | 73 | |
| 20260905090003 | 18 | 352 | 1.6 | 8.0 | 0.00 | 0.00 | 0.00 | 74 | |
| 20260905085034 | 18 | 350 | 3.2 | 4.8 | 0.00 | 0.00 | 0.00 | 77 | |
| 20260905084218 | 18 | 6 | 4.8 | 6.4 | 0.00 | 0.00 | 0.00 | 74 | |
| 20260905082003 | 20 | 351 | 3.2 | 6.4 | 0.00 | 0.00 | 0.00 | 64 | |
| 20260905081003 | 20 | 339 | 4.8 | 9.7 | 0.00 | 0.00 | 0.00 | 62 | |
| 20260905075003 | 20 | 1 | 4.8 | 11.3 | 0.00 | 0.00 | 0.00 | 61 | |
| 20260905074433 | 21 | 346 | 4.8 | 8.0 | 0.00 | 0.00 | 0.00 | 62 | |
| 20260905072432 | 22 | 3 | 6.4 | 14.5 | 0.00 | 0.00 | 0.00 | 61 | |
| 20260905071003 | 22 | 358 | 4.8 | 9.7 | 0.00 | 0.00 | 0.00 | 63 | |
| 20260905070003 | 22 | 2 | 4.8 | 9.7 | 0.00 | 0.00 | 0.00 | 68 | |
| 20260905064217 | 21 | 23 | 3.2 | 8.0 | 0.00 | 0.00 | 0.00 | 70 | |
| 20260905063003 | 20 | 4 | 1.6 | 4.8 | 0.00 | 0.00 | 0.00 | 75 | |
| 20260905062217 | 21 | 349 | 0.0 | 3.2 | 0.00 | 0.00 | 0.00 | 71 | |
| 20260905061217 | 20 | 354 | 0.0 | 1.6 | 0.00 | 0.00 | 0.00 | 75 | |
| 20260905060003 | 20 | 15 | 0.0 | 1.6 | 0.00 | 0.00 | 0.00 | 76 | |
| 20260905055035 | 20 | 228 | 0.0 | 3.2 | 0.00 | 0.00 | 0.00 | 80 | |
| 20260905054432 | 19 | 238 | 0.0 | 3.2 | 0.00 | 0.00 | 0.00 | 79 | |
| 20260905053003 | 18 | 232 | 1.6 | 4.8 | 0.00 | 0.00 | 0.00 | 79 | |
| 20260905052216 | 18 | 226 | 1.6 | 3.2 | 0.00 | 0.00 | 0.00 | 80 | |
| 20260905051034 | 18 | 237 | 1.6 | 3.2 | 0.00 | 0.00 | 0.00 | 81 | |
| 20260905045034 | 17 | 22 | 0.0 | 3.2 | 0.00 | 0.00 | 0.00 | 86 | |
| 20260905044433 | 16 | 22 | 0.0 | 3.2 | 0.00 | 0.00 | 0.00 | 86 | |
| 20260905043003 | 17 | 0 | 0.0 | 0.0 | 0.00 | 0.00 | 0.00 | 83 | |
| 20260905042034 | 17 | 0 | 0.0 | 0.0 | 0.00 | 0.00 | 0.00 | 81 | |
| 20260905041003 | 18 | 22 | 0.0 | 3.2 | 0.00 | 0.00 | 0.00 | 78 | |
| 20260905040433 | 18 | 47 | 1.6 | 3.2 | 0.00 | 0.00 | 0.00 | 77 | |
| 20260905035003 | 17 | 59 | 0.0 | 1.6 | 0.00 | 0.00 | 0.00 | 87 | |
| 20260905034003 | 17 | 19 | 0.0 | 1.6 | 0.00 | 0.00 | 0.00 | 89 | |
| 20260905032003 | 17 | 0 | 0.0 | 0.0 | 0.00 | 0.00 | 0.00 | 86 | |
| 20260905031003 | 17 | 196 | 0.0 | 1.6 | 0.00 | 0.00 | 0.00 | 85 | |
| 20260905030218 | 17 | 217 | 0.0 | 3.2 | 0.00 | 0.00 | 0.00 | 85 | |
| 20260905024003 | 17 | 234 | 1.6 | 3.2 | 0.00 | 0.00 | 0.00 | 83 | |
| 20260905023003 | 18 | 235 | 1.6 | 3.2 | 0.00 | 0.00 | 0.00 | 78 | |
| 20260905022433 | 18 | 220 | 1.6 | 3.2 | 0.00 | 0.00 | 0.00 | 79 | |
| 20260905021003 | 18 | 211 | 0.0 | 1.6 | 0.00 | 0.00 | 0.00 | 80 | |
| 20260905020432 | 18 | 154 | 0.0 | 1.6 | 0.00 | 0.00 | 0.00 | 80 | |
| 20260905015432 | 17 | 195 | 0.0 | 1.6 | 0.00 | 0.00 | 0.00 | 82 | |
| 20260905014034 | 17 | 206 | 0.0 | 1.6 | 0.00 | 0.00 | 0.00 | 83 | |
| 20260905013003 | 17 | 213 | 0.0 | 3.2 | 0.00 | 0.00 | 0.00 | 82 | |
| 20260905012003 | 18 | 228 | 1.6 | 4.8 | 0.00 | 0.00 | 0.00 | 80 | |
| 20260905011003 | 18 | 218 | 1.6 | 4.8 | 0.00 | 0.00 | 0.00 | 79 |